(201881) = 2004 AA4

Discovered at Anderson Mesa on 2004-01-13 by LONEOS.

Orbit

Orbit type: Main Belt

Note: WebGL enabled browser required.

epoch2022-01-21.0
epoch JD2459600.5
perihelion date2020-12-25.59170
perihelion JD2459209.09170
argument of perihelion (°)157.53307
ascending node (°)310.77421
inclination (°)10.18348
eccentricity0.1305826
perihelion distance (AU)2.7752518
Tisserand w.r.t. Jupiter3.2
ΔV w.r.t. Earth (km/sec)10.8
semimajor axis (AU)3.1920822
mean anomaly (°)67.64299
mean daily motion (°/day)0.17281950
aphelion distance (AU)3.609
period (years)5.7
P-vector [x]-0.31867207
P-vector [y]0.84056140
P-vector [z]0.43806923
Q-vector [x]-0.93836118
Q-vector [y]-0.21448070
Q-vector [z]-0.27106515
absolute magnitude15.43
phase slope0.15
uncertainty0
referenceMPO 695299
observations used511
oppositions13
arc length (days)7167
first opposition used2002
last opposition used2022
residual rms (arc-secs)0.73
perturbers coarse indicatorM-v
perturbers precise indicator003Ek
first observation date used2002-09-21.0
last observation date used2022-05-06.0
computer namePan
JD of orbit computation2456612.561384
perihelion JD uncertainty (days)2.5927E-04
argument of perihelion uncertainty (°)4.6164E-05
ascending node uncertainty (°)2.0095E-05
inclination uncertainty (°)8.2682E-06
eccentricity uncertainty 7.2284E-08
perihelion distance uncertainty (AU)2.2317E-07
Minimum Orbit Intersection Distances (in AU)
for orbit epoch: 2458200.5, reference: MPO413037
Mercury2.45618
Venus2.0561
Earth1.79323
Mars1.14441
Jupiter1.5115
Saturn6.32971
Uranus15.1797
Neptune26.4804

Observations

525 total observations over interval: 2002 09 21.34733 – 2022 05 06.286463
These data are available for download (format description).

Date (UT) J2000 RA J2000 Dec Magn Location Ref
2002 09 21.34733 01 41 30.74 +24 52 39.5 20.0 R 644 – Palomar Mountain/NEAT MPS 150705
2002 09 21.36727 01 41 30.00 +24 52 40.2 20.3 R 644 – Palomar Mountain/NEAT MPS 150705
2002 09 27.51088 01 37 41.70 +24 54 49.7 20.5 R 644 – Palomar Mountain/NEAT MPS 150705
2002 09 27.52135 01 37 41.35 +24 54 48.8 20.1 R 644 – Palomar Mountain/NEAT MPS 150705
2002 11 01.21241 01 10 17.58 +23 12 03.6 20.0 R 644 – Palomar Mountain/NEAT MPS 150705
2002 11 01.23338 01 10 16.62 +23 11 57.1 20.0 R 644 – Palomar Mountain/NEAT MPS 150705
2002 11 01.25556 01 10 15.62 +23 11 50.5 20.1 R 644 – Palomar Mountain/NEAT MPS 150705
2002 11 13.12111 01 02 38.10 +22 08 35.0 20.6 R 644 – Palomar Mountain/NEAT MPS 150705
2002 11 13.14228 01 02 37.38 +22 08 29.2 19.9 R 644 – Palomar Mountain/NEAT MPS 150705
2002 11 13.16331 01 02 36.71 +22 08 21.8 19.9 R 644 – Palomar Mountain/NEAT MPS 150705
2003 12 22.34177 08 52 40.85 +21 20 03.3 19.3   704 – Lincoln Laboratory ETS, New Mexico MPS 98830
2003 12 22.35477 08 52 40.47 +21 20 03.4 19.9   704 – Lincoln Laboratory ETS, New Mexico MPS 98830
2003 12 22.36800 08 52 40.14 +21 20 02.5 19.8   704 – Lincoln Laboratory ETS, New Mexico MPS 98830
2003 12 22.38105 08 52 39.77 +21 20 01.7 19.5   704 – Lincoln Laboratory ETS, New Mexico MPS 98830
2003 12 22.39397 08 52 39.43 +21 20 01.0 19.6   704 – Lincoln Laboratory ETS, New Mexico MPS 98830
2003 12 27.34922 08 50 16.37 +21 17 00.0 19.9   704 – Lincoln Laboratory ETS, New Mexico MPS 98830
2003 12 27.36351 08 50 15.89 +21 17 00.2 20.0   704 – Lincoln Laboratory ETS, New Mexico MPS 98830
2003 12 27.37722 08 50 15.47 +21 16 59.6 19.9   704 – Lincoln Laboratory ETS, New Mexico MPS 98830
2003 12 27.39036 08 50 15.01 +21 16 59.9 19.5   704 – Lincoln Laboratory ETS, New Mexico MPS 98830
2003 12 27.40353 08 50 14.54 +21 16 59.8 20.1   704 – Lincoln Laboratory ETS, New Mexico MPS 98830
2004 01 13.27392 08 38 00.03 +21 12 34.2 18.8 R 699 – Lowell Observatory-LONEOS MPS 96662
2004 01 13.29406 08 37 58.93 +21 12 36.1   699 – Lowell Observatory-LONEOS MPS 96662
2004 01 13.31407 08 37 57.86 +21 12 35.4   699 – Lowell Observatory-LONEOS MPS 96662
2004 01 13.33407 08 37 56.89 +21 12 35.4   699 – Lowell Observatory-LONEOS MPS 96662
2004 01 16.30685 08 35 17.98 +21 12 01.2 19.5   644 – Palomar Mountain/NEAT MPS 97077
2004 01 16.32829 08 35 16.77 +21 12 00.9 19.3   644 – Palomar Mountain/NEAT MPS 97077
2004 01 16.35600 08 35 15.21 +21 12 00.6 19.2   644 – Palomar Mountain/NEAT MPS 97077
2004 01 16.42133 08 35 11.52 +21 11 59.6 19.6 V 691 – Steward Observatory, Kitt Peak-Spacewatch MPS 96662
2004 01 16.45031 08 35 09.83 +21 11 58.7 20.4 V 691 – Steward Observatory, Kitt Peak-Spacewatch MPS 96662
2004 01 16.47777 08 35 08.35 +21 11 58.5 19.6 V 691 – Steward Observatory, Kitt Peak-Spacewatch MPS 96662
2004 01 17.25862 08 34 26.00 +21 11 48.7 19.0   644 – Palomar Mountain/NEAT MPS 97077
2004 01 17.27940 08 34 24.83 +21 11 48.5 19.1   644 – Palomar Mountain/NEAT MPS 97077
2004 01 17.31994 08 34 22.54 +21 11 47.8 18.9   644 – Palomar Mountain/NEAT MPS 97077
2004 01 19.28270 08 32 33.75 +21 11 19.5 19.9 V 703 – Catalina Sky Survey MPS 97077
2004 01 19.29420 08 32 33.06 +21 11 19.0 19.5 V 703 – Catalina Sky Survey MPS 97077
2004 01 19.30568 08 32 32.38 +21 11 19.0 19.8 V 703 – Catalina Sky Survey MPS 97077
2004 01 19.31713 08 32 31.65 +21 11 18.6 19.8 V 703 – Catalina Sky Survey MPS 97077
2004 01 22.29174 08 29 44.21 +21 10 23.7 18.7   704 – Lincoln Laboratory ETS, New Mexico MPS 97077
2004 01 22.30463 08 29 43.44 +21 10 24.1 19.2   704 – Lincoln Laboratory ETS, New Mexico MPS 97077
2004 01 22.31739 08 29 42.69 +21 10 23.1 19.5   704 – Lincoln Laboratory ETS, New Mexico MPS 97077
2004 01 22.33040 08 29 41.93 +21 10 22.8 19.4   704 – Lincoln Laboratory ETS, New Mexico MPS 97077
2004 01 22.34338 08 29 41.16 +21 10 23.4 19.2   704 – Lincoln Laboratory ETS, New Mexico MPS 97077
2004 01 28.18187 08 24 09.82 +21 07 39.2 19.4 V 691 – Steward Observatory, Kitt Peak-Spacewatch MPS 97874
2004 01 28.20978 08 24 08.21 +21 07 38.4 19.7 V 691 – Steward Observatory, Kitt Peak-Spacewatch MPS 97874
2004 01 28.23797 08 24 06.56 +21 07 37.4 19.4 V 691 – Steward Observatory, Kitt Peak-Spacewatch MPS 97874
2004 01 30.27696 08 22 11.83 +21 06 18.8 19.4   704 – Lincoln Laboratory ETS, New Mexico MPS 97874
2004 01 30.28964 08 22 11.20 +21 06 19.1 19.6   704 – Lincoln Laboratory ETS, New Mexico MPS 97874
2004 01 30.30237 08 22 10.39 +21 06 18.8 19.4   704 – Lincoln Laboratory ETS, New Mexico MPS 97874
2004 01 30.31490 08 22 09.65 +21 06 18.3 19.6   704 – Lincoln Laboratory ETS, New Mexico MPS 97874
2004 01 30.32729 08 22 08.95 +21 06 17.9 19.4   704 – Lincoln Laboratory ETS, New Mexico MPS 97874
2004 02 11.11404 08 11 55.06 +20 54 35.8 20.3 V 691 – Steward Observatory, Kitt Peak-Spacewatch MPS 98830
2004 02 11.14106 08 11 53.76 +20 54 34.0 19.8 V 691 – Steward Observatory, Kitt Peak-Spacewatch MPS 98830
2004 02 11.16808 08 11 52.44 +20 54 32.0 19.7 V 691 – Steward Observatory, Kitt Peak-Spacewatch MPS 98830
2004 02 16.21902 08 08 08.98 +20 47 12.5 19.5   704 – Lincoln Laboratory ETS, New Mexico MPS 98830
2004 02 16.24277 08 08 07.97 +20 47 09.6 20.1   704 – Lincoln Laboratory ETS, New Mexico MPS 98830
2004 02 16.25468 08 08 07.58 +20 47 07.4 19.7   704 – Lincoln Laboratory ETS, New Mexico MPS 98830
2004 02 17.280190 08 07 26.034 +20 45 28.21 19.73 V 645 – Apache Point-Sloan Digital Sky Survey MPS 137037
2004 02 17.283662 08 07 25.888 +20 45 27.84 20.42   645 – Apache Point-Sloan Digital Sky Survey MPS 137037
2004 02 22.26676 08 04 24.99 +20 36 35.4 19.4   704 – Lincoln Laboratory ETS, New Mexico MPS 100111
2004 02 22.27850 08 04 24.54 +20 36 34.0 19.9   704 – Lincoln Laboratory ETS, New Mexico MPS 100111
2004 02 22.29013 08 04 24.14 +20 36 33.0 19.9   704 – Lincoln Laboratory ETS, New Mexico MPS 100111
2004 02 26.21901 08 02 27.44 +20 28 38.0 19.3   704 – Lincoln Laboratory ETS, New Mexico MPS 100111
2004 02 26.23085 08 02 27.09 +20 28 36.9 20.0   704 – Lincoln Laboratory ETS, New Mexico MPS 100111
2004 02 26.24213 08 02 26.75 +20 28 36.6 19.9   704 – Lincoln Laboratory ETS, New Mexico MPS 100111
2004 02 26.25351 08 02 26.48 +20 28 34.7 20.1   704 – Lincoln Laboratory ETS, New Mexico MPS 100111
2004 02 26.26490 08 02 26.11 +20 28 33.4 19.9   704 – Lincoln Laboratory ETS, New Mexico MPS 100111
2004 04 13.166140 08 09 44.135 +18 02 33.24 20.78 V 645 – Apache Point-Sloan Digital Sky Survey MPS 137037
2004 04 13.169612 08 09 44.273 +18 02 32.32 21.27   645 – Apache Point-Sloan Digital Sky Survey MPS 137037
2004 04 14.160670 08 10 25.351 +17 58 29.11 20.71 V 645 – Apache Point-Sloan Digital Sky Survey MPS 137037
2004 04 14.164142 08 10 25.498 +17 58 28.15 21.43   645 – Apache Point-Sloan Digital Sky Survey MPS 137037
2004 04 15.159040 08 11 07.782 +17 54 21.34 20.84 V 645 – Apache Point-Sloan Digital Sky Survey MPS 137037
2004 04 15.162512 08 11 07.925 +17 54 20.48 21.48   645 – Apache Point-Sloan Digital Sky Survey MPS 137037
2004 04 16.147020 08 11 50.810 +17 50 13.55 20.72 V 645 – Apache Point-Sloan Digital Sky Survey MPS 137037
2004 04 16.150492 08 11 50.959 +17 50 12.71 21.23   645 – Apache Point-Sloan Digital Sky Survey MPS 137037
2007 10 07.17122 21 58 32.05 -05 04 38.9 20.4 V G96 – Mt. Lemmon Survey MPS 218633
2007 10 07.18076 21 58 31.83 -05 04 39.5 20.8 V G96 – Mt. Lemmon Survey MPS 218633
2007 10 07.18993 21 58 31.65 -05 04 39.9 20.2 V G96 – Mt. Lemmon Survey MPS 218633
2007 10 07.19534 21 58 31.54 -05 04 40.7 21.0 V G96 – Mt. Lemmon Survey MPS 218633
2008 10 25.37771 03 20 55.96 +33 38 12.5 19.7 V 703 – Catalina Sky Survey MPS 261467
2008 10 25.38580 03 20 55.53 +33 38 13.8 19.2 V 703 – Catalina Sky Survey MPS 261467
2008 10 25.39385 03 20 55.24 +33 38 12.6 19.9 V 703 – Catalina Sky Survey MPS 261467
2008 10 25.40203 03 20 54.85 +33 38 12.3 19.3 V 703 – Catalina Sky Survey MPS 261467
2008 11 22.26497 02 56 23.49 +32 16 33.3 19.4   704 – Lincoln Laboratory ETS, New Mexico MPS 266422
2008 11 22.27751 02 56 22.86 +32 16 29.4 19.4   704 – Lincoln Laboratory ETS, New Mexico MPS 266422
2008 11 22.29002 02 56 22.16 +32 16 24.9 19.8   704 – Lincoln Laboratory ETS, New Mexico MPS 266422
